User: anonymous   Login
Location: Lugrin
(46.4033°N, 6.6674°E)
Time: 18:55:16
(UTC+00:00)
Language:

Cosmos 1943 - Orbit

View from above orbital plane
View from above orbital plane
View from above satellite
View from above satellite

Ground track
Ground track

The orbit data is extracted from the following two-line orbital elements,

1 19119U 88039A   20331.09468324  .00000030  00000-0  39892-4 0  9992
2 19119  71.0026 339.9813 0013583 298.2833 117.4289 14.15159643680050
Epoch (UTC): 26 November 2020 02:16:20
Eccentricity: 0.0013583
inclination: 71.0026°
perigee height: 832 km
apogee height: 851 km
right ascension of ascending node: 339.9813°
argument of perigee: 298.2833°
revolutions per day: 14.15159643
mean anomaly at epoch: 117.4289°
orbit number at epoch: 68005

The dashed part of the orbit path shows where the satellite is in the earth's shadow,  

DLR